This demonstration page uses our WeatherBlox Daily Observations layout. Learn more.

Left ArrowRight Arrow

38.20091, -84.87328

Hourly Observations for August 9, 2018

Temp ( °F °C ) Dew Point ( °F °C ) Humidity (%) Winds ( mph kmh ) Pressure ( in mb ) Visibility ( mi km ) Precip ( " mm )
12:07 am 00:07 Mostly Clear 73 22.8 72 22.2 96 96 SSW 7 11 29.97 1015 10 16 0.00 0.00
12:53 am 00:53 Mostly Clear 73 22.8 71 21.7 94 94 SW 7 11 29.96 1015 9 14 0.00 0.00
1:53 am 01:53 Clear 72 22.2 71 21.7 97 97 SW 3 6 29.97 1015 8 13 0.00 0.00
2:00 am 02:00 Partly Cloudy 72 22.2 71 21.7 97 97 SSW 5 7 29.97 1015 8 13 0.00 0.00
2:06 am 02:06 Mostly Cloudy 73 22.8 71 21.7 94 94 SSW 5 7 29.97 1015 9 14 0.00 0.00
2:50 am 02:50 Mostly Cloudy 73 23 72 22 94 94 WSW 5 7 29.97 1015 7 11 0.00 0.00
2:53 am 02:53 Mostly Cloudy 73 22.8 71 21.7 94 94 WSW 5 7 29.97 1015 7 11 0.00 0.00
3:53 am 03:53 Cloudy 73 22.8 71 21.7 94 94 SSW 3 6 29.96 1015 8 13 0.00 0.00
4:53 am 04:53 Cloudy with Mist and Fog 73 22.8 71 21.7 94 94 Calm 29.96 1015 5 8 0.00 0.00
5:30 am 05:30 Mostly Cloudy with Mist and Fog 72 22.2 71 21.7 97 97 SW 3 6 29.94 1014 4 6 0.00 0.00
5:51 am 05:51 Mostly Cloudy with Mist and Fog 72 22 72 22 100 100 Calm 29.97 1015 5 8 0.00 0.00
5:53 am 05:53 Mostly Cloudy with Mist and Fog 72 22.2 71 21.7 97 97 Calm 29.96 1015 5 8 0.00 0.00
6:06 am 06:06 Cloudy with Mist and Fog 72 22.2 70 21.1 94 94 SSW 3 6 29.97 1015 6 10 0.00 0.00
6:35 am 06:35 Cloudy 72 22.2 70 21.1 94 94 Calm 29.97 1015 7 11 0.00 0.00
6:53 am 06:53 Cloudy with Mist and Fog 73 22.8 71 21.7 94 94 SSW 3 6 29.98 1015 5 8 0.00 0.00
7:50 am 07:50 Cloudy with Mist and Fog 73 23 72 22 94 94 SW 3 6 29.97 1015 3 4 0.00 0.00
7:53 am 07:53 Cloudy with Mist and Fog 73 22.8 71 21.7 94 94 SSW 6 9 29.98 1015 3 4 0.00 0.00
8:00 am 08:00 Cloudy with Mist and Fog 73 22.8 71 21.7 94 94 SW 3 6 29.97 1015 4 6 0.00 0.00
8:53 am 08:53 Cloudy with Mist and Fog 74 23.3 71 21.7 91 91 Calm 29.99 1016 4 6 0.00 0.00
9:53 am 09:53 Cloudy with Mist and Fog 75 23.9 72 22.2 90 90 Calm 30.00 1016 5 8 0.00 0.00
10:20 am 10:20 Cloudy with Mist and Fog 76 24.4 72 22.2 88 88 Calm 30.00 1016 6 10 0.00 0.00
10:53 am 10:53 Mostly Cloudy 77 25 71 21.7 82 82 SSW 5 7 30.01 1016 8 13 0.00 0.00
11:09 am 11:09 Mostly Cloudy 78 25.6 72 22.2 82 82 S 5 7 30.00 1016 10 16 0.00 0.00
11:40 am 11:40 Partly Cloudy 81 27.2 72 22.2 74 74 Calm 30.00 1016 10 16 0.00 0.00
11:53 am 11:53 Mostly Sunny 82 27.8 72 22.2 72 72 VRB 6 9 30.02 1017 10 16 0.00 0.00
12:53 pm 12:53 Partly Cloudy 84 28.9 69 20.6 61 61 VRB 3 6 30.00 1016 10 16 0.00 0.00
1:53 pm 13:53 Sunny 85 29.4 67 19.4 55 55 W 8 13 29.98 1015 10 16 0.00 0.00
2:53 pm 14:53 Partly Cloudy 86 30 66 18.9 51 51 WSW 8 13 29.97 1015 10 16 0.00 0.00
3:53 pm 15:53 Mostly Sunny 85 29.4 67 19.4 55 55 VRB 7 11 29.96 1014 10 16 0.00 0.00
4:53 pm 16:53 Mostly Sunny 87 30.6 65 18.3 48 48 W 7 11 29.95 1014 10 16 0.00 0.00
5:53 pm 17:53 Sunny 86 30 66 18.9 51 51 Calm 29.93 1014 10 16 0.00 0.00
6:53 pm 18:53 Mostly Sunny 83 28.3 68 20 61 61 Calm 29.93 1014 10 16 0.00 0.00
7:53 pm 19:53 Sunny 80 26.7 66 18.9 62 62 WSW 3 6 29.94 1014 10 16 0.00 0.00
8:53 pm 20:53 Clear 76 24.4 68 20 77 77 W 3 6 29.94 1014 10 16 0.00 0.00
9:53 pm 21:53 Clear 74 23.3 68 20 82 82 Calm 29.96 1014 10 16 0.00 0.00
10:53 pm 22:53 Clear 71 21.7 68 20 90 90 Calm 29.98 1015 10 16 0.00 0.00
11:53 pm 23:53 Clear 71 21.7 68 20 90 90 Calm 29.99 1016 10 16 0.00 0.00

Powered by AerisWeather